Total_Precipitation_Accumulation
0.47 0.36 0.26 0.25 0.25 0.39 0.32 0.24 0.31 0.38 0.20 0.17 0.31 0.37 0.32 0.14 0.03 0.03 0.09 0.12 0.29 0.34 0.29 0.29 0.34 0.44 0.51 0.46 0.40 0.35 0.42 0.52 0.61
0.55 0.28 0.16 0.21 0.28 0.32 0.36 0.32 0.40 0.39 0.27 0.29 0.48 0.53 0.26 0.05 0.00 0.02 0.03 0.09 0.22 0.28 0.25 0.18 0.19 0.24 0.38 0.48 0.55 0.57 0.46 0.37 0.44
0.36 0.24 0.14 0.21 0.28 0.33 0.33 0.31 0.38 0.31 0.33 0.38 0.41 0.28 0.11 0.03 0.01 0.05 0.08 0.13 0.17 0.22 0.23 0.20 0.16 0.17 0.20 0.24 0.32 0.40 0.44 0.48 0.43
0.31 0.28 0.17 0.25 0.34 0.38 0.31 0.31 0.31 0.19 0.26 0.26 0.21 0.12 0.12 0.07 0.13 0.12 0.29 0.24 0.30 0.36 0.33 0.36 0.32 0.31 0.31 0.28 0.29 0.30 0.30 0.32 0.40
0.40 0.25 0.16 0.28 0.28 0.22 0.21 0.23 0.26 0.19 0.17 0.15 0.11 0.11 0.11 0.03 0.11 0.26 0.44 0.85 0.67 0.61 0.69 0.55 0.53 0.53 0.54 0.72 0.57 0.44 0.41 0.48 0.43
0.45 0.36 0.17 0.12 0.14 0.11 0.14 0.19 0.19 0.12 0.04 0.02 0.04 0.09 0.08 0.13 0.13 0.21 0.34 0.73 0.83 0.87 0.77 0.68 0.60 0.57 0.54 0.60 0.64 0.62 0.65 0.41 0.33
0.21 0.23 0.06 0.07 0.07 0.09 0.10 0.14 0.12 0.09 0.04 0.04 0.05 0.04 0.03 0.03 0.03 0.09 0.22 0.36 0.65 0.94 1.08 1.33 0.92 0.74 0.73 0.80 0.86 0.90 0.84 0.66 0.57
0.26 0.34 0.22 0.16 0.11 0.10 0.14 0.12 0.08 0.03 0.02 0.02 0.04 0.03 0.03 0.02 0.02 0.02 0.11 0.19 0.43 0.82 1.08 1.41 3.22 2.95 2.20 2.30 2.03 1.55 1.29 1.28 1.08
0.14 0.12 0.23 0.12 0.09 0.08 0.09 0.12 0.16 0.14 0.12 0.09 0.06 0.04 0.02 0.03 0.02 0.02 0.06 0.17 0.26 0.47 0.71 0.80 1.36 3.28 3.83 3.99 4.25 3.53 2.84 2.26 1.90
0.31 0.17 0.20 0.17 0.08 0.08 0.04 0.05 0.07 0.09 0.11 0.11 0.14 0.13 0.07 0.04 0.05 0.03 0.06 0.12 0.22 0.27 0.42 0.46 0.52 0.95 1.60 2.59 3.44 3.08 2.54 1.79 1.41
0.25 0.21 0.12 0.11 0.14 0.13 0.09 0.05 0.06 0.07 0.08 0.07 0.08 0.09 0.16 0.14 0.08 0.06 0.10 0.18 0.27 0.35 0.41 0.36 0.33 0.35 0.52 0.77 1.34 1.98 2.60 2.41 1.69
0.28 0.26 0.23 0.15 0.13 0.22 0.20 0.15 0.14 0.11 0.08 0.05 0.04 0.04 0.05 0.08 0.11 0.11 0.12 0.15 0.22 0.25 0.28 0.24 0.25 0.30 0.37 0.58 0.76 0.85 1.05 1.83 2.30
0.61 0.52 0.39 0.29 0.29 0.27 0.28 0.24 0.20 0.13 0.09 0.05 0.04 0.05 0.06 0.05 0.06 0.11 0.17 0.18 0.14 0.11 0.11 0.19 0.22 0.27 0.28 0.40 0.80 1.03 0.93 0.91 1.10
0.36 0.32 0.27 0.35 0.38 0.31 0.41 0.46 0.46 0.35 0.23 0.17 0.19 0.21 0.18 0.11 0.09 0.06 0.12 0.17 0.17 0.14 0.09 0.13 0.18 0.19 0.24 0.27 0.56 1.23 1.31 1.36 1.38
0.52 0.31 0.17 0.15 0.22 0.35 0.33 0.32 0.44 0.62 0.71 0.63 0.58 0.49 0.42 0.31 0.18 0.09 0.09 0.07 0.06 0.08 0.12 0.13 0.10 0.13 0.17 0.26 0.38 1.34 1.67 1.38 1.46
0.46 0.47 0.33 0.18 0.10 0.07 0.06 0.17 0.27 0.33 0.52 0.72 0.73 0.62 0.46 0.30 0.22 0.16 0.20 0.22 0.21 0.18 0.13 0.12 0.08 0.05 0.07 0.11 0.16 0.32 0.89 1.52 1.40
0.65 0.35 0.35 0.29 0.16 0.12 0.11 0.10 0.11 0.14 0.26 0.30 0.35 0.38 0.34 0.26 0.17 0.16 0.14 0.16 0.22 0.29 0.24 0.17 0.15 0.16 0.14 0.10 0.11 0.13 0.29 0.66 1.26
0.73 0.71 0.32 0.25 0.31 0.26 0.16 0.16 0.17 0.16 0.14 0.20 0.22 0.23 0.16 0.14 0.13 0.12 0.08 0.09 0.10 0.19 0.30 0.33 0.27 0.22 0.19 0.17 0.13 0.11 0.13 0.19 0.43
1.26 1.12 0.96 0.56 0.38 0.42 0.45 0.39 0.32 0.30 0.26 0.22 0.16 0.14 0.11 0.16 0.09 0.06 0.13 0.15 0.12 0.11 0.14 0.19 0.25 0.32 0.34 0.37 0.38 0.38 0.38 0.36 0.40
1.71 1.72 1.74 1.68 1.38 1.02 0.84 0.80 0.64 0.49 0.39 0.28 0.26 0.32 0.24 0.19 0.23 0.17 0.06 0.06 0.06 0.08 0.11 0.18 0.28 0.36 0.37 0.35 0.38 0.47 0.50 0.70 0.80